FALCON 9 DEB, 48608

Orbit data source: Space-Track

FALCON 9 DEB, 48608 is space debris in LEO originally from a launch on Sat, 15 May 2021 UTC launched from the Air Force Eastern Test Range (AFETR). Debris objects in space refer to the collection of defunct objects orbiting the Earth. Examples of debris include non-operational satellites, rocket bodies, and fragments generated from explosions, collisions, or faulty payload assembly.

Loading next visibility...
Identifier
48608, 2021-041BH
Orbit
LEO
Country
Flag of USUS
Related business
Manufacturer
SpaceX/Seattle
Mission
Spacecraft
Bus & Motor
Unknown
Mass
~100 kg wet, ~100 kg dry
Launch date (UTC)
2021-05-15 (5 years ago)
Launch vehicle
Unknown
Launch site
Air Force Eastern Test Range (AFETR)
Object type
Payload
Rocket body
Debris
Shape & HBR
Cyl, 3.5 m
Radar Cross Section
0.110 m², Medium (>0.1 m² and < 1m²)

Expand to show TLE details & history
Last TLE update: 21 hours ago

TLE from 21 hours ago
0 FALCON 9 DEB
1 48608U 21041BH  25349.91168229  .00002197  00000-0  14420-3 0  9998
2 48608  53.0281 205.7006 0008793 300.2677  59.7443 15.11859787251685
Epoch: 2025-12-15T21:52Z
TLE epoch observation values (Epoch: 2025-12-15T21:52:49.349Z)
Latitude
-0.00007°
Longitude
152.69148°
Altitude
528.35 km
Speed
7.602 km/s
True Right ascension
13h 42m 48s
True Declination
0° 00' 00"
Sunlit
Object was in daylight at epoch
Visualization orbit readout
Latitude
Unknown
Longitude
Unknown
Altitude
Unknown
Speed
Unknown
Apparent Right ascension
Unknown
Apparent Declination
Unknown
Sunlit
N/A
Visualization observer readout
Local Sidereal Time
17:43:03
Azimuth
Unknown
Elevation
Unknown
Doppler factor
Unknown
Orbital elements
Apogee altitude
536.879 km
Perigee altitude
524.729 km
Semi-major axis
6,908.941 km
Eccentricity
0.00088
Inclination
53.0281°
RAAN
205.7006°
Arg. of periapsis
300.2677°
True anomaly
59.83138°
Mean anomaly
59.7443°
Eccentric anomaly
59.78784°
Mean motion
3.77943 °/min
Orbital period
95.25 mins
BSTAR
0.0001442
Loading maneuver chart data...
Computing Atmospheric mass density...
Loading historical data...
Loading historical data...
Loading historical data...
Loading historical data...
Loading historical data...
Loading historical data...
Loading historical data...

Documentation

Showing up to 5 results
|